Date String (YYYY-MM-DD hh:mm:ss) UTC,Instrument flags,Ambient pressure (hPa),Sample flow (lpm),Bypass flow (lpm),Sample temperature (°C),Ambient temperature (°C),ASC tube jacket temperature (°C),LED temperature (°C),Box temperature (°C),Sample RH (%),Span deviation,Mass concentration (μg/m³),Mass concentration (μg/m³),Mass concentration (μg/m³)
DateTimeUTC,F1_M11,P_M11,Q1_M11,Q2_M11,T1_M11,T2_M11,T3_M11,T4_M11,T5_M11,U1_M11,ZSPAN_M11,X0_M11,X2_M11,X1_M11
2021-10-30 08:00:00,,0823.7,5.00,0.00,29.0,28.1,00.0,38.0,30.8,10.0,0000.0,0008.25,0001.50,0000.73
2021-10-30 08:01:00,,0823.7,5.00,0.00,29.0,28.1,00.0,38.0,30.8,10.0,0000.0,0008.23,0001.58,0000.73
2021-10-30 08:02:00,,0823.7,4.99,0.00,29.0,28.1,00.0,38.0,30.8,10.1,0000.0,0007.56,0001.57,0000.73
2021-10-30 08:03:00,,0823.7,4.99,0.00,29.0,28.1,00.0,38.0,30.7,10.1,0000.0,0007.35,0001.57,0000.72
2021-10-30 08:04:00,,0823.7,4.99,0.00,29.0,28.1,00.0,38.0,30.7,10.1,0000.0,0006.94,0001.58,0000.74
2021-10-30 08:05:00,,0823.7,5.01,0.00,28.9,28.1,00.0,38.0,30.7,10.1,0000.0,0005.78,0001.61,0000.75
2021-10-30 08:06:00,,0823.7,4.99,0.00,28.9,28.0,00.0,38.0,30.7,10.0,0000.0,0005.63,0001.56,0000.75
2021-10-30 08:07:00,,0823.7,5.00,0.00,28.9,28.0,00.0,38.0,30.7,10.0,0000.0,0005.70,0001.56,0000.75
2021-10-30 08:08:00,,0823.8,5.00,0.00,28.9,28.0,00.0,38.0,30.7,10.0,0000.0,0005.57,0001.55,0000.75
2021-10-30 08:09:00,,0823.8,5.01,0.00,28.9,28.0,00.0,38.0,30.6,10.0,0000.0,0005.96,0001.63,0000.76
2021-10-30 08:10:00,,0823.8,5.00,0.00,28.9,28.0,00.0,38.0,30.6,10.0,0000.0,0005.03,0001.61,0000.77
2021-10-30 08:11:00,,0823.8,4.99,0.00,28.9,28.0,00.0,38.0,30.6,09.9,0000.0,0004.52,0001.57,0000.78
2021-10-30 08:12:00,,0823.8,5.01,0.00,28.9,28.0,00.0,38.0,30.6,09.8,0000.0,0004.46,0001.50,0000.78
2021-10-30 08:13:00,,0823.7,5.00,0.00,28.9,28.0,00.0,38.0,30.6,09.8,0000.0,0004.34,0001.51,0000.79
2021-10-30 08:14:00,,0823.8,5.00,0.00,28.9,28.0,00.0,38.0,30.6,09.9,0000.0,0004.38,0001.53,0000.81
2021-10-30 08:15:00,,0823.8,5.01,0.00,28.9,27.9,00.0,38.0,30.6,09.8,0000.0,0004.34,0001.52,0000.81
2021-10-30 08:16:00,,0823.8,5.00,0.00,28.9,27.9,00.0,38.0,30.5,09.9,0000.0,0004.36,0001.49,0000.80
2021-10-30 08:17:00,,0823.9,4.99,0.00,28.9,27.9,00.0,38.0,30.5,09.9,0000.0,0004.49,0001.52,0000.81
2021-10-30 08:18:00,,0823.8,5.01,0.00,28.9,27.9,00.0,38.0,30.5,09.9,0000.0,0004.76,0001.53,0000.81
2021-10-30 08:19:00,,0823.8,5.01,0.00,28.9,27.9,00.0,38.0,30.6,09.9,0000.0,0005.64,0001.53,0000.80
2021-10-30 08:20:00,,0823.8,5.01,0.00,28.8,27.9,00.0,38.0,30.5,09.9,0000.0,0005.57,0001.49,0000.81
2021-10-30 08:21:00,,0823.8,5.00,0.00,28.8,27.9,00.0,37.9,30.5,09.9,0000.0,0005.18,0001.48,0000.80
2021-10-30 08:22:00,,0823.8,4.99,0.00,28.8,27.9,00.0,37.9,30.5,09.8,0000.0,0005.44,0001.52,0000.79
2021-10-30 08:23:00,,0823.8,5.01,0.00,28.8,27.9,00.0,37.9,30.5,09.8,0000.0,0005.35,0001.52,0000.78
2021-10-30 08:24:00,,0823.7,4.99,0.00,28.8,27.8,00.0,37.9,30.5,09.8,0000.0,0005.26,0001.50,0000.77
2021-10-30 08:25:00,,0823.7,5.01,0.00,28.8,27.8,00.0,37.9,30.5,09.8,0000.0,0005.37,0001.53,0000.76
2021-10-30 08:26:00,,0823.8,4.99,0.00,28.8,27.8,00.0,37.9,30.5,09.8,0000.0,0005.42,0001.54,0000.75
2021-10-30 08:27:00,,0823.7,4.99,0.00,28.8,27.8,00.0,37.9,30.5,09.8,0000.0,0005.44,0001.56,0000.75
2021-10-30 08:28:00,,0823.8,5.00,0.00,28.8,27.8,00.0,37.9,30.5,09.7,0000.0,0005.28,0001.49,0000.74
2021-10-30 08:29:00,,0823.8,5.00,0.00,28.8,27.8,00.0,37.9,30.5,09.7,0000.0,0004.97,0001.47,0000.74
2021-10-30 08:30:00,,0823.8,5.00,0.00,28.8,27.8,00.0,37.9,30.5,09.7,0000.0,0003.82,0001.42,0000.75
2021-10-30 08:31:00,,0823.8,5.01,0.00,28.8,27.8,00.0,37.9,30.5,09.7,0000.0,0003.42,0001.42,0000.75
2021-10-30 08:32:00,,0823.8,5.00,0.00,28.8,27.8,00.0,37.9,30.5,09.7,0000.0,0003.23,0001.39,0000.73
2021-10-30 08:33:00,,0823.8,5.00,0.00,28.8,27.8,00.0,37.9,30.5,09.6,0000.0,0002.96,0001.34,0000.74
2021-10-30 08:34:00,,0823.8,5.01,0.00,28.8,27.8,00.0,37.9,30.5,09.6,0000.0,0003.09,0001.34,0000.74
2021-10-30 08:35:00,,0823.9,5.00,0.00,28.8,27.8,00.0,37.9,30.5,09.5,0000.0,0003.89,0001.35,0000.75
2021-10-30 08:36:00,,0823.9,5.01,0.00,28.8,27.9,00.0,37.9,30.6,09.5,0000.0,0005.68,0001.28,0000.74
2021-10-30 08:37:00,,0823.9,5.00,0.00,28.8,27.9,00.0,37.9,30.6,09.5,0000.0,0006.17,0001.26,0000.74
2021-10-30 08:38:00,,0823.8,5.00,0.00,28.8,27.9,00.0,37.9,30.6,09.5,0000.0,0006.05,0001.22,0000.74
2021-10-30 08:39:00,,0823.9,4.99,0.00,28.8,27.9,00.0,37.9,30.6,09.5,0000.0,0006.12,0001.24,0000.74
2021-10-30 08:40:00,,0823.8,5.00,0.00,28.8,27.9,00.0,37.9,30.6,09.5,0000.0,0005.99,0001.22,0000.73
2021-10-30 08:41:00,,0823.8,5.00,0.00,28.8,27.9,00.0,37.9,30.6,09.5,0000.0,0005.96,0001.22,0000.72
2021-10-30 08:42:00,,0823.8,5.00,0.00,28.8,27.9,00.0,37.9,30.6,09.4,0000.0,0006.03,0001.17,0000.70
2021-10-30 08:43:00,,0823.8,4.99,0.00,28.8,27.9,00.0,37.9,30.6,09.5,0000.0,0007.14,0001.16,0000.70
2021-10-30 08:44:00,,0823.8,5.00,0.00,28.8,27.9,00.0,37.9,30.5,09.4,0000.0,0006.99,0001.11,0000.69
2021-10-30 08:45:00,,0823.8,5.00,0.00,28.8,27.9,00.0,37.9,30.6,09.4,0000.0,0006.80,0001.08,0000.67
2021-10-30 08:46:00,,0823.8,5.00,0.00,28.8,27.9,00.0,37.9,30.5,09.3,0000.0,0006.46,0001.05,0000.67
2021-10-30 08:47:00,,0823.8,5.01,0.00,28.8,27.9,00.0,37.9,30.5,09.3,0000.0,0004.60,0001.04,0000.66
2021-10-30 08:48:00,,0823.8,5.00,0.00,28.8,27.9,00.0,37.9,30.6,09.3,0000.0,0003.42,0001.00,0000.65
2021-10-30 08:49:00,,0823.8,5.00,0.00,28.8,27.8,00.0,37.9,30.5,09.3,0000.0,0003.29,0000.99,0000.65
2021-10-30 08:50:00,,0823.8,5.02,0.00,28.8,27.8,00.0,37.9,30.5,09.3,0000.0,0003.80,0001.02,0000.64
2021-10-30 08:51:00,,0823.8,5.01,0.00,28.8,27.8,00.0,37.9,30.5,09.3,0000.0,0005.03,0001.01,0000.64
2021-10-30 08:52:00,,0823.7,5.00,0.00,28.8,27.8,00.0,37.9,30.5,09.3,0000.0,0006.54,0001.03,0000.63
2021-10-30 08:53:00,,0823.8,4.99,0.00,28.8,27.8,00.0,37.9,30.6,09.3,0000.0,0006.93,0001.06,0000.63
2021-10-30 08:54:00,,0823.8,5.01,0.00,28.8,27.8,00.0,37.9,30.5,09.3,0000.0,0005.71,0001.05,0000.62
2021-10-30 08:55:00,,0823.8,5.01,0.00,28.8,27.8,00.0,37.9,30.5,09.3,0000.0,0005.79,0001.07,0000.62
2021-10-30 08:56:00,,0823.8,5.00,0.00,28.8,27.8,00.0,37.9,30.5,09.3,0000.0,0005.80,0001.06,0000.61
2021-10-30 08:57:00,,0823.9,5.00,0.00,28.8,27.8,00.0,37.9,30.5,09.3,0000.0,0005.66,0001.04,0000.60
2021-10-30 08:58:00,,0823.9,5.01,0.00,28.8,27.8,00.0,37.9,30.5,09.3,0000.0,0005.50,0000.99,0000.58
2021-10-30 08:59:00,,0823.9,5.00,0.00,28.8,27.8,00.0,37.9,30.5,09.3,0000.0,0005.59,0000.98,0000.57
